SCP
0 0 1 1 1 1 1 1 1 1 1 1 1 1 1 1 0 0 0 0 0 0 0 0 0 0 0 0 1 1 1 1 1 1 1 1 1 1 1 1 0 0 0
0 0 0 0 1 1 1 1 1 1 1 1 1 1 1 1 0 0 0 0 0 0 0 0 0 0 0 1 1 1 1 1 1 1 1 1 1 1 1 1 0 0 0
0 0 0 0 0 0 0 1 1 1 1 1 1 1 1 1 1 0 0 0 0 0 0 0 1 1 1 1 1 1 1 1 1 1 1 1 1 1 1 1 0 0 0
0 0 0 0 0 0 0 0 1 1 1 1 1 1 1 1 1 0 0 0 0 0 0 0 1 1 1 1 1 1 1 1 1 1 1 1 1 1 1 1 1 0 0
0 0 0 0 0 0 0 0 1 1 1 1 1 1 1 1 1 1 0 0 0 0 0 0 1 1 1 1 1 1 1 0 0 1 1 1 1 1 1 1 1 1 1
0 0 0 0 0 0 0 0 1 1 1 1 1 1 1 1 1 1 1 1 1 1 0 0 0 1 1 1 1 1 1 0 0 0 1 1 1 1 1 1 1 1 1
0 0 0 0 0 0 0 0 1 1 1 1 1 1 1 1 1 1 1 1 1 1 1 1 1 1 1 1 1 1 1 1 1 1 0 1 1 1 1 1 1 1 1
0 0 0 0 0 0 0 1 1 1 1 1 1 1 1 1 1 1 1 1 1 1 1 1 1 1 1 1 1 1 1 1 1 1 1 1 1 1 1 1 1 1 1
0 0 0 0 0 0 0 0 0 1 1 1 1 1 1 1 1 1 1 1 1 1 1 1 1 1 1 1 1 1 1 1 1 1 1 1 1 1 1 1 1 1 1
0 0 0 0 0 0 0 0 0 0 0 0 1 1 1 1 1 1 1 1 1 1 1 1 1 1 1 1 1 1 1 1 1 1 1 1 1 1 1 1 1 1 1
0 0 0 0 0 0 0 0 0 0 0 0 0 0 1 1 1 1 1 1 1 1 1 1 1 1 1 1 1 1 1 0 1 1 1 1 1 1 1 1 1 1 1
0 0 0 0 0 0 0 0 0 0 0 0 0 0 0 1 1 1 1 1 1 1 1 1 1 1 1 1 1 1 1 0 0 1 1 1 1 1 1 1 1 1 1
0 0 0 0 0 0 0 0 0 0 0 0 0 0 0 0 0 1 1 1 1 1 1 1 1 1 1 1 1 1 1 0 0 0 1 1 1 1 1 1 1 1 1
0 0 0 0 0 0 0 0 0 0 0 0 0 0 0 0 0 1 1 1 1 1 1 0 0 1 1 1 1 1 1 1 0 0 0 1 1 1 1 1 1 1 1
0 0 0 0 0 0 0 0 0 0 0 0 0 0 0 0 0 0 0 0 1 1 0 0 0 1 1 1 1 1 1 1 0 0 0 1 1 1 1 1 1 1 1
0 0 0 0 0 0 0 0 0 0 0 0 0 0 0 0 0 0 0 0 0 0 0 0 1 1 1 1 1 1 1 1 1 0 0 0 0 1 1 1 1 1 1
0 0 0 0 0 0 0 0 0 0 0 0 0 0 0 0 0 0 0 0 0 0 0 0 0 1 1 1 1 1 1 1 1 1 0 0 0 0 0 0 1 1 1
0 0 0 0 0 0 0 0 0 0 0 0 0 0 0 0 0 0 0 0 0 0 0 0 0 0 0 0 1 1 1 1 1 1 1 0 0 0 0 0 0 0 0
0 0 0 0 0 0 0 0 0 0 0 0 0 0 0 0 0 0 0 0 0 0 0 0 0 0 0 0 1 1 1 1 1 1 1 0 0 0 0 0 0 0 0
0 0 0 0 0 0 0 0 0 0 0 0 0 0 0 0 0 0 0 0 0 0 0 0 0 0 1 1 1 1 1 1 1 1 1 1 1 1 0 0 0 0 0
0 0 0 0 0 0 0 0 0 0 0 0 0 0 0 0 0 0 0 0 0 0 0 0 0 0 0 1 1 1 1 1 1 1 1 1 1 1 1 1 0 0 0
0 0 0 0 0 0 0 0 0 0 0 0 0 0 0 0 0 0 0 0 0 0 0 0 0 0 0 0 0 1 1 1 1 1 1 1 1 1 1 1 1 0 0
0 0 0 0 0 0 0 0 0 0 0 0 0 0 0 0 0 0 0 0 0 0 0 0 0 0 0 0 0 0 0 1 1 1 1 1 1 1 1 1 1 0 0
0 0 0 0 0 0 0 0 0 0 0 0 0 0 0 0 0 0 0 0 0 0 0 0 0 0 0 0 0 0 0 0 1 1 1 1 1 1 1 1 1 0 0
0 0 0 0 0 0 0 0 0 0 0 0 0 0 0 0 0 0 0 0 0 0 0 0 0 0 0 0 0 0 0 0 0 1 1 1 1 1 1 1 1 0 0
0 0 0 0 0 0 0 0 0 0 0 0 0 0 0 0 0 0 0 0 0 0 0 0 0 0 0 0 0 0 0 0 0 0 1 1 1 1 1 1 1 1 0
Wind_Speed
4 4 3 2 3 2 2 3 4 4 5 5 5 6 6 7 6 5 2 5 4 5 6 6 6 7 7 7 7 7 7 7 8 8 9 9 9 9 10 10 10 10 10
4 4 4 3 3 2 3 3 4 4 4 4 5 6 6 6 6 6 5 5 6 5 5 6 6 6 7 8 7 7 7 8 8 8 9 9 10 10 10 10 10 10 10
6 5 5 4 3 3 3 3 4 4 4 4 5 5 4 5 6 6 5 4 5 8 7 6 6 7 7 7 7 7 7 8 8 9 9 10 10 10 11 11 11 11 10
6 5 4 4 4 3 3 2 2 3 3 3 3 3 3 3 6 6 5 5 4 4 8 7 6 7 7 7 8 7 7 8 8 9 10 10 10 10 10 11 11 11 10
7 5 4 4 5 3 3 3 1 2 2 2 3 3 3 3 5 5 6 5 4 4 4 7 7 7 8 8 8 8 8 9 9 9 10 10 10 10 10 10 10 10 11
7 6 4 5 5 3 3 3 2 2 2 2 3 2 3 3 4 4 4 4 4 4 5 5 6 8 9 9 8 9 9 10 10 10 10 11 11 11 11 11 11 11 11
7 6 5 5 5 4 4 3 2 2 1 1 2 2 3 4 4 3 3 4 4 4 5 5 5 4 6 11 10 9 10 10 10 11 11 12 12 12 12 12 12 12 12
7 6 6 5 5 4 5 4 2 2 1 0 1 2 2 3 3 2 2 3 4 4 4 5 5 5 5 5 9 11 10 10 11 11 12 12 12 13 13 13 13 13 13
5 6 7 6 5 5 4 4 3 2 1 0 1 2 1 1 1 2 2 2 2 2 3 4 5 5 5 5 5 11 11 10 11 12 12 13 13 13 14 14 14 14 13
5 5 6 6 6 5 5 5 5 3 3 1 0 1 1 2 1 1 2 2 1 1 2 2 4 4 5 4 4 3 9 9 10 12 13 13 14 14 15 15 15 15 14
3 4 5 5 5 5 6 5 5 4 3 3 2 1 1 1 2 2 1 1 1 1 1 2 2 2 3 4 3 3 5 7 9 11 13 14 14 15 15 16 16 16 16
2 3 4 4 4 5 5 5 5 4 4 3 2 2 2 1 1 2 1 1 1 0 1 1 2 1 2 3 3 1 3 6 8 9 10 12 13 15 16 16 17 17 18
2 3 3 4 4 5 5 5 4 4 4 3 3 2 2 2 2 2 2 2 1 1 1 2 1 1 1 2 1 1 5 6 7 8 9 10 11 12 14 16 17 19 19
3 3 3 4 4 4 4 4 3 4 3 3 3 3 2 2 2 2 2 3 3 2 2 2 1 1 1 2 2 3 4 6 7 8 9 10 11 12 13 14 16 17 18
2 3 3 3 3 4 4 4 3 4 4 3 3 2 2 1 1 2 2 3 3 3 2 1 1 1 2 2 2 4 4 2 6 8 9 10 11 11 12 13 14 14 15
2 3 3 3 2 2 3 3 3 3 3 3 2 3 3 2 2 1 2 2 3 4 3 1 1 2 3 4 2 5 5 4 8 8 9 10 10 11 12 12 13 14 14
3 3 3 3 3 2 2 2 3 3 3 2 2 2 2 3 2 2 2 2 2 3 4 4 3 3 4 4 3 4 5 6 5 7 8 9 10 11 12 13 13 14 14
3 3 2 3 2 2 3 3 3 2 3 3 3 3 2 1 2 2 2 2 2 3 4 5 4 3 4 4 4 6 5 5 5 4 7 9 10 11 12 12 13 14 14
3 3 3 3 2 2 2 2 2 3 3 3 3 3 3 3 2 1 2 2 2 2 3 4 4 3 4 4 4 5 6 4 6 4 7 10 11 11 12 12 13 13 14
4 4 4 3 3 3 3 3 2 3 3 2 3 3 3 4 4 3 2 2 3 3 3 4 4 4 4 4 4 4 4 4 5 6 5 6 7 10 12 13 13 13 14
6 5 5 5 4 4 3 4 3 4 4 3 3 3 2 4 6 5 4 4 3 3 3 4 4 4 4 4 4 4 5 5 6 4 4 5 5 6 8 11 14 14 14
6 6 7 6 5 4 2 4 7 6 5 5 4 3 2 4 4 5 5 5 6 6 5 4 4 5 6 5 4 5 5 5 5 3 5 6 6 7 6 7 6 9 12
7 7 7 7 7 6 6 7 9 8 7 6 5 4 3 3 4 5 5 7 8 8 8 8 8 7 7 6 6 7 6 6 7 6 6 8 7 7 6 6 8 10 12
6 6 7 7 7 6 7 9 9 10 8 7 7 6 6 5 4 5 6 6 6 6 5 7 7 7 7 7 7 7 8 8 9 7 6 7 7 7 6 6 7 10 12
6 6 6 6 7 6 7 8 9 8 8 8 7 7 6 6 2 3 7 7 7 5 5 8 9 9 10 10 9 7 7 6 7 6 5 6 7 7 7 7 6 8 11
5 5 5 5 6 6 3 5 8 7 8 7 6 6 6 6 2 5 7 6 7 6 6 5 8 9 9 9 10 9 7 6 6 5 3 4 6 5 5 4 4 4 6
Wind_Direction
321 316 299 298 287 279 251 244 240 229 227 225 227 230 233 234 233 238 194 166 222 240 239 226 217 212 207 206 208 207 201 193 186 185 178 172 170 166 160 158 157 155 153
328 321 309 300 297 282 278 257 243 237 232 225 230 231 235 241 239 235 238 182 193 219 232 223 218 215 206 203 205 202 196 188 184 185 179 173 169 166 165 164 164 162 160
334 327 323 314 308 290 269 262 254 241 230 222 226 234 231 244 247 237 235 234 195 190 209 218 217 216 211 204 202 200 192 185 186 184 181 175 171 170 170 170 170 168 167
348 343 335 329 321 309 293 271 256 243 232 225 225 233 230 232 247 246 241 229 222 206 187 192 210 212 209 206 201 200 195 190 190 186 183 178 176 175 174 174 175 174 172
353 354 347 338 330 320 311 295 274 266 241 231 228 226 235 233 242 241 240 238 219 222 208 171 195 208 206 206 203 201 200 195 194 188 185 182 181 180 179 178 179 178 175
359 357 349 352 346 337 331 313 299 273 266 246 242 222 230 229 238 236 241 243 241 221 221 206 193 194 201 206 205 202 203 202 198 195 192 191 189 187 185 183 185 187 185
359 4 354 0 355 356 349 334 309 277 272 259 243 219 210 216 231 225 231 235 233 232 226 218 220 210 191 198 206 208 208 206 205 203 201 198 195 194 191 192 195 195 194
0 359 2 0 7 359 6 360 347 323 336 284 272 248 210 184 198 199 210 227 232 219 232 226 221 218 234 201 189 199 208 208 209 208 209 206 200 199 197 199 201 200 200
6 2 5 1 2 4 14 8 5 354 327 283 317 299 277 218 157 154 175 200 233 237 235 243 232 219 224 231 200 191 202 209 213 215 215 212 206 203 203 204 205 204 204
12 7 7 3 5 9 8 8 21 359 346 346 42 341 347 355 290 180 164 149 166 235 250 244 247 235 229 228 224 200 193 211 217 222 222 218 213 210 208 208 209 208 208
13 14 5 5 8 11 14 12 11 7 2 356 354 350 356 318 296 286 193 145 169 197 230 246 249 250 246 238 237 204 187 213 222 227 228 226 222 218 215 213 212 213 214
18 30 3 1 6 12 13 9 7 15 7 4 348 355 348 332 333 317 289 259 233 197 235 226 242 230 240 247 234 84 212 225 231 233 233 231 230 227 223 219 218 218 219
9 21 357 357 7 8 7 3 7 11 16 7 354 352 353 350 343 322 300 292 279 244 218 209 201 219 249 260 222 226 224 229 237 240 240 235 233 232 229 227 225 224 223
351 353 343 348 356 352 353 1 352 14 7 8 6 353 329 356 346 330 318 304 275 239 217 196 191 181 330 295 44 265 242 213 236 242 242 239 234 233 232 232 232 231 228
315 314 319 318 345 344 346 345 355 3 357 357 359 351 335 349 317 322 309 299 294 280 252 185 227 40 332 327 331 281 275 204 238 243 243 242 238 235 234 233 232 232 231
301 297 293 301 320 324 332 340 338 359 341 14 349 339 344 328 324 299 283 273 276 287 283 279 289 311 327 297 304 297 286 261 240 237 242 243 242 239 237 236 234 231 230
262 268 287 293 306 315 323 337 330 343 328 341 337 344 342 338 309 295 279 265 258 269 276 286 291 300 296 295 302 294 286 273 252 215 233 243 244 242 239 238 236 232 230
275 271 273 277 288 305 318 326 319 314 322 327 331 328 333 340 309 302 289 275 274 269 275 290 296 301 299 306 300 293 286 277 276 230 229 243 245 243 241 239 238 235 234
253 247 243 266 274 281 286 280 289 299 304 309 318 320 328 318 295 297 284 284 282 276 276 280 289 300 291 298 304 292 284 285 282 260 234 235 238 240 241 239 237 236 236
240 250 256 260 267 270 267 268 276 284 287 287 290 294 305 305 302 298 285 283 284 277 273 275 283 288 289 296 290 295 299 297 288 282 265 254 240 236 238 237 236 235 234
240 242 253 254 254 260 270 288 280 277 282 284 272 271 291 324 330 313 310 306 295 282 278 279 282 285 287 296 300 309 301 303 290 274 284 272 260 255 243 232 229 230 231
242 240 246 249 253 249 198 255 277 273 273 274 277 273 251 237 242 245 272 294 301 294 295 285 282 284 292 295 298 294 298 303 296 303 298 288 279 268 260 256 242 227 231
239 241 244 246 249 242 203 230 245 270 270 273 277 274 271 267 259 260 228 231 240 239 257 282 284 286 292 297 295 289 287 289 285 298 301 284 274 268 265 258 234 234 236
238 241 247 249 250 245 212 230 237 249 256 257 256 261 261 262 258 283 277 267 270 256 247 256 275 286 293 297 292 287 290 286 282 274 266 275 278 274 273 268 240 231 236
246 245 244 249 253 247 204 221 236 247 248 251 248 247 253 257 195 244 268 272 276 271 228 234 266 278 287 280 275 273 267 269 282 286 275 267 282 290 283 272 252 226 233
250 256 252 255 260 267 193 209 241 251 251 251 246 240 222 250 242 227 257 268 276 288 294 271 250 245 255 251 234 247 262 269 277 284 273 271 285 298 290 275 275 271 253